San Diego Classic - Holiday Cup - Inventory

Station: INVENTORY - T Race

Distance: 10 Miles    

Release: 03-Jul-2020 08:00

Weather Release:    Arrival:

Wind at Release:     Wind at Arrival:

Temp at Release: °    Temp at Arrival: °

Lofts: 111

Birds: 616

Clocked: 565

Good Luck to Everyone!
Drops Pos Breeder Pigeon Name Color Sex Ent Arrival Speed To Win Elg PdRaceAvg Speed
1 Pizza Man & Crazy Al - 5802-AU20-CRAZ BB H 1 08:05:21.30 3286.648 00:00:00 Yes
2 Jones Boys - P J Loft - UT 2269-AU20-SLI BB H 1 08:06:22.20 2762.951 00:01:01 Yes
3 Duane Gragg - CA 1068-AU20-KEYH BB H 1 08:06:27.50 2725.161 00:01:06 Yes
4 A-Lo Loft/Nemelka - UT 0033-AU20-NRPL Psycho Killer x Turbulenc BB H 1 08:07:38.60 2302.660 00:02:17 Yes
5 Carney/Kravchuck - CT 0128-AU20-NWC BB H 1 08:08:06.20 2171.946 00:02:45 Yes
6 Jsrl - CA 15289-AU20-JEDD BC H 1 08:08:55.30 1972.726 00:03:34 Yes
7 Mesopotamia Loft - MN 0688-AU20-SD BC H 1 08:08:58.00 1962.825 00:03:37 Yes
8 Los Banditos - CA 2451-AU20-LOSB BB H 1 08:12:23.60 1420.118 00:07:02 Yes
9 Ron Pairan - OH 0609-AU20-LFO BCWF H 1 08:12:24.60 1418.211 00:07:03 Yes
10 Hawaiian Express - CA 0165-AU20-HAW BB H 1 08:12:25.60 1416.309 00:07:04 Yes
11 Sterchi & Bieche - CA 0199-AU20-BIEC BC H 1 08:12:26.10 1415.360 00:07:05 Yes
12 Stealth Loft - UT 0935-AU20-OGN BC H 1 08:12:38.00 1393.140 00:07:17 Yes
13 Irma Derrick - CA 0044-AU20-DENT BC H 1 08:12:56.90 1359.248 00:07:36 Yes
14 Eddie And Gene - CA 0217-AU20-GENE BC H 1 08:12:57.20 1358.724 00:07:36 Yes
15 Polskie Orly Loft - CA 0611-AU20-OCF BIG BOY BLUE BB C 1 08:12:58.70 1356.106 00:07:37 Yes
17 Michael Groe - CA 2071-AU20-GROE 56X68 BC H 1 08:13:01.70 1350.902 00:07:40 Yes
18 O & L De Vries - ON 3553-AU20-OL BC H 1 08:13:02.30 1349.866 00:07:41 Yes
19 Ancona Loft - CA 0308-AU20-ANCO BB H 1 08:13:03.10 1348.487 00:07:42 Yes
20 C L & Patty Gage - TX 0283-AU20-DEN DC H 1 08:13:05.90 1343.682 00:07:45 Yes
21 Rick Barker - CA 0564-AU20-PRO SIL H 1 08:13:06.30 1342.999 00:07:45 Yes
22 Rocky Mountain Racing - UT 0157-AU20-RMR BC H 1 08:13:11.30 1334.513 00:07:50 Yes
23 Hi-Cal Connection - CA 0850-AU20-HICA COH BC H 1 08:13:12.30 1332.828 00:07:51 Yes
24 Tim Brandon - CA 29780-AU20-JEDD BC H 1 08:13:12.80 1331.988 00:07:51 Yes
25 Genesis Syndicate Loft - AZ 0238-AU20-GENE BBSP H 1 08:13:15.00 1328.302 00:07:54 Yes
26 Dan Lionello - CA 0610-AU20-SB GRZ H 1 08:13:15.50 1327.467 00:07:54 Yes
27 Team Phoenix - AZ 0102-AU20-TPHO BB H 1 08:13:17.00 1324.969 00:07:56 Yes
28 Scott Mc Callister - AZ 0726-AU20-DUTC BB H 1 08:13:20.90 1318.517 00:08:00 Yes
29 A-Lo Loft/Nemelka - UT 0075-AU20-ALO DCWF H 2 08:13:22.90 1315.232 00:08:02 Yes
30 Tony Chang - CA 33242-AU20-JEDD BB H 1 08:13:24.30 1312.943 00:08:03 Yes
31 Drama Queen Loft - TX 1005-AU20-GCI 275 x 855 BBWF H 1 08:13:35.30 1295.229 00:08:14 Yes
32 Tim Brandon - CA 29759-AU20-JEDD DC H 2 08:13:41.00 1286.236 00:08:20 Yes
33 Milestone Loft - CA 1319-AU20-SD BB H 1 08:13:45.90 1278.605 00:08:25 Yes
34 Christopher Loft - UT 20052-AU20-GS BB H 1 08:13:54.00 1266.187 00:08:33 Yes
35 Two-Be-Won - NV 20007-AU20-TBW 2985-1687 BB H 1 08:13:54.50 1265.428 00:08:33 Yes
36 Flying D Loft - TX 0514-AU20-FLYD Den 168 /Flyd 348 DC H 1 08:14:05.30 1249.261 00:08:44 Yes
37 A-Lo Loft/Nemelka - UT 0037-AU20-NRPL Debacker x Splendiferous BB H 3 08:14:09.90 1242.499 00:08:49 Yes
38 Sterchi & El Dorado - 0259-AU20-SR COH BB H 1 08:14:10.40 1241.769 00:08:49 Yes
39 Avitron Loft - CA 1608-AU20-SD DC H 1 08:14:12.10 1239.291 00:08:51 Yes
40 Junior & Jt - 0857-AU20-HICA BC H 1 08:14:20.70 1226.908 00:08:59 Yes
41 Christopher Loft - UT 20058-AU20-GS BCPD H 2 08:14:36.90 1204.242 00:09:16 Yes
42 O & L De Vries - ON 3613-AU20-OL BB H 2 08:14:38.40 1202.186 00:09:17 Yes
43 Alex Romo - CA 0100-AU20-PAL BBWF H 1 08:14:40.00 1200.000 00:09:19 Yes
44 Mc Knight & Mellinger - CA 0731-AU20-JEDD COH BB H 1 08:14:56.00 1178.571 00:09:35 Yes
45 Nemeth Family Loft - CA 0640-AU20-NEME BB H 1 08:14:58.70 1175.031 00:09:37 Yes
46 Guillermo Siordia - CA 0426-AU20-PAL BC H 1 08:14:58.90 1174.769 00:09:38 Yes
47 Two-Be-Won - NV 20023-AU20-TBW 18170-109936 BB H 2 08:15:04.00 1168.142 00:09:43 Yes
48 Mc Knight & Mellinger - CA 0726-AU20-JEDD BB H 2 08:15:05.50 1166.207 00:09:44 Yes
49 Homberto Franko - CA 55500-AU20-FMC BC H 1 08:15:10.90 1159.293 00:09:50 Yes
50 Avenino Castellanos - CA 0853-AU20-HAN BB H 1 08:15:20.60 1147.078 00:09:59 Yes
51 Los Banditos - CA 2448-AU20-LOSB BB H 2 08:15:51.00 1110.410 00:10:30 Yes
52 Homberto Franko - CA 55497-AU20-FMC BC H 2 08:15:51.40 1109.943 00:10:30 Yes
53 Avlia-Munoz - CA 0007-AU20-SD BC H 1 08:15:57.90 1102.412 00:10:37 Yes
54 Avlia-Munoz - CA 49717-MX20-MEX BC H 2 08:16:28.90 1067.853 00:11:08 Yes
55 Ed Dove - CA 3401-AU20-VITA BBWF H 1 08:16:32.30 1064.194 00:11:11 Yes
56 Nemeth Family Loft - CA 0651-AU20-NEME BB H 2 08:16:42.60 1053.262 00:11:21 Yes
57 Missiles Castro - AZ 2431-AU20-MISS BB H 1 08:16:45.80 1049.911 00:11:24 Yes
58 Flying D Loft - TX 0549-AU20-FLYD Arpu 10573/ Foys 9431 BB H 2 08:16:50.10 1045.441 00:11:29 Yes
59 O C F Syndicate - CA 20027-AU20-JEDD DC H 1 08:16:53.80 1041.626 00:11:32 Yes
60 Christopher Loft - UT 20062-AU20-GS BB H 3 08:17:22.40 1013.047 00:12:01 Yes
61 Ron Pairan - OH 0639-AU20-LFO BCWF H 2 08:17:26.50 1009.078 00:12:05 Yes
62 Team Phoenix - AZ 0069-AU20-TPHO BB H 2 08:17:37.90 998.204 00:12:17 Yes
63 Mesopotamia Loft - MN 4840-AU20-JEDD BB H 2 08:17:57.30 980.228 00:12:36 Yes
64 Jones Boys - P J Loft - UT 2214-AU20-SLI BB H 2 08:18:13.90 965.353 00:12:53 Yes
64 Milestone Loft - CA 1413-AU20-SD BB H 2 08:18:13.90 965.353 00:12:53 Yes
66 C L & Patty Gage - TX 0264-AU20-DEN BC H 2 08:18:51.50 933.274 00:13:30 Yes
67 Avila-Missle - 2428-AU20-MISS BBSP H 1 08:18:56.60 929.087 00:13:35 Yes
68 Milestone Loft - CA 1320-AU20-SD BB H 3 08:19:36.90 897.272 00:14:16 Yes
69 Hawaiian Express - CA 0163-AU20-HAW BB H 2 08:19:52.40 885.609 00:14:31 Yes
70 Dan Lionello - CA 0813-AU20-SB BC H 2 08:20:12.60 870.856 00:14:51 Yes
71 O & L De Vries - ON 3550-AU20-OL BC H 3 08:20:19.70 865.787 00:14:58 Yes
72 Hugo Avila Loft - CA 0210-AU20-GENE COH BC H 1 08:20:43.60 849.148 00:15:22 Yes
73 Ed Dove - CA 3402-AU20-VITA BB H 2 08:21:05.40 834.519 00:15:44 Yes
74 Crazy Al & Carlton Kroese - CO 5748-AU20-CRAZ BC H 1 08:21:10.70 831.038 00:15:49 Yes
75 Dan Lionello - CA 0601-AU20-SB GRZ H 3 08:21:17.80 826.420 00:15:57 Yes
76 Michael Groe - CA 2072-AU20-GROE 10726X11540 BB H 2 08:21:33.80 816.200 00:16:13 Yes
77 Pizza Man & Crazy Al - 5789-AU20-CRAZ BB H 2 08:21:56.40 802.188 00:16:35 Yes
78 A P C Loft - TX 20215-AU20-APC BC H 1 08:22:02.70 798.367 00:16:41 Yes
79 Lillie & Cecil - CA 2009-AU20-WEBE El Rey 1317x1809 BC C 1 08:22:17.60 789.474 00:16:56 Yes
80 Junior & Jt - 0829-AU20-SD BB H 2 08:22:30.20 782.106 00:17:09 Yes
81 T F L - CA 0509-AU20-SD 31929 X 3366 BB H 1 08:22:32.00 781.065 00:17:11 Yes
82 Irma Derrick - CA 0052-AU20-DENT BB H 2 08:22:57.00 766.885 00:17:36 Yes
83 B T C Racing - CA 17511-AU20-JEDD BB H 1 08:24:01.40 732.621 00:18:40 Yes
84 Rude-Flip-Maker-Loft - CA 1222-AU20-SD BB H 1 08:24:01.60 732.519 00:18:40 Yes
85 Lillie & Cecil - CA 2029-AU20-WEBE Rayando El Sol 1599x1813 BB H 2 08:24:07.10 729.735 00:18:46 Yes
86 Any Given Day-Quest - TX 20643-AU20-AA BC H 1 08:24:17.70 724.429 00:18:56 Yes
87 Blankenship/Stork - CA 23842-AU20-JEDD BB H 1 08:24:19.10 723.734 00:18:58 Yes
88 C L & Patty Gage - TX 0275-AU20-DEN BCSP H 3 08:24:22.30 722.150 00:19:01 Yes
89 Rick Barker - CA 0563-AU20-PRO BB H 2 08:24:51.30 708.107 00:19:30 Yes
90 Nemeth Family Loft - CA 0654-AU20-NEME BC H 3 08:25:19.40 695.011 00:19:58 Yes
91 B T C Racing - CA 17507-AU20-JEDD BC H 2 08:25:24.00 692.913 00:20:03 Yes
92 Genesis Syndicate Loft - AZ 0241-AU20-GENE BB H 2 08:26:05.20 674.674 00:20:44 Yes
93 Ledet-Gutrz - LA 20406-AU20-LEGU BC H 1 08:26:48.30 656.594 00:21:27 Yes
94 Rude-Flip-Maker-Loft - CA 1225-AU20-SD BB H 2 08:28:00.40 628.422 00:22:39 Yes
95 Christopher Loft - UT 20059-AU20-GS BBPD H 4 08:28:12.90 623.782 00:22:52 Yes
96 Rick Barker - CA 0581-AU20-PRO BBSP H 3 08:29:29.30 596.846 00:24:08 Yes
97 A-Lo Loft/Nemelka - UT 0044-AU20-NRPL 8127 x Hendriks 886 BC H 4 08:30:33.10 576.073 00:25:12 Yes
98 Scott Mc Callister - AZ 0708-AU20-DUTC BBWF H 2 08:31:03.60 566.645 00:25:42 Yes
99 Genesis Syndicate Loft - AZ 0249-AU20-GENE BBWF H 3 08:31:29.20 558.967 00:26:08 Yes
100 Scott Mc Callister - AZ 0724-AU20-DUTC BC H 3 08:31:41.90 555.234 00:26:21 Yes
101 Mc Knight & Mellinger - CA 0741-AU20-JEDD BB H 3 08:31:51.90 552.330 00:26:31 Yes

There are 620 bird records

Note: These Race Results are unofficial and subject to change until verified by the Race Committee and declared final.